Regional Weather Roundup
Issued by NWS Goodland, KS

Home | Current Version | Previous Version | Graphics & Text | Print | Product List | Glossary On
Versions: 1 2 3 4 5 6 7 8 9 10 11 12 13 14 15 16 17 18 19 20 21 22 23 24 25 26 27 28 29 30 31 32 33 34 35 36 37 38 39 40 41 42 43 44 45 46 47 48 49 50
000
ASUS43 KGLD 202208
RWRGLD

GOODLAND FORECAST AREA HOURLY WEATHER ROUNDUP
NATIONAL WEATHER SERVICE GOODLAND KS
300 PM MST SAT DEC 20 2014

...OFFICIAL OBSERVATIONS...

CITY           SKY/WX    TMP DP  RH WIND       PRES   REMARKS
GOODLAND KS    PTSUNNY   54  27  35 NE5       29.97R
HILL CITY KS   PTSUNNY   54  32  43 S3        29.98R
IMPERIAL NEB   PTSUNNY   46  28  49 W6        29.96S
MCCOOK NEB     CLOUDY    48  29  47 CALM      29.97R
AKRON CO       CLOUDY    44  24  45 NE5       29.95S
BURLINGTON CO  MOSUNNY   51  25  36 CALM      29.96R
LIMON CO       SUNNY     51  13  21 S14G22    29.93F
$$

...UNOFFICIAL OBSERVATIONS...

CITY           SKY/WX    TMP DP  RH WIND       PRES   REMARKS
COLBY KS       MOSUNNY   54  34  47 CALM      29.97S
GOVE KS          N/A     53  32  45 MISG        N/A
NORTON KS      SUNNY     50  28  43 CALM      29.96S
SHARON SPRINGS   N/A     50  33  51 S6          N/A
TRIBUNE KS     CLOUDY    50  36  57 SW7       29.99R
KIT CARSON CO    N/A     46  35  65 MISG        N/A
YUMA CO          N/A     43  31  63 CALM        N/A
$$



USA.gov is the U.S. government's official web portal to all federal, state and local government web resources and services.